Home > Weather > Anadyr > Past weeks

Flag for Russia Weather for the Past 2 Weeks in Anadyr, Russia

Now
-20 °F

Fog.


Feels Like: -41 °F
Forecast: -13 / -10 °F
Wind: 10 mph from North

Location: Anadyr

Current Time: Feb 9, 2016 at 11:27:19 AM

Latest Report: Feb 9, 2016 at 11:00 AM


Visibility: N/A

Pressure: 29.89 "Hg

Humidity: 91%

Dew point: -22 °F

Location of AnadyrLocation

Historic Weather in Anadyr — Graph

°F

Anadyr Temperature Yesterday

Maximum temperature yesterday: -2 °F (at 7:30 AM)
Minimum temperature yesterday: -8 °F (at 8:00 PM)
Average temperature yesterday: -4 °F

High & Low Weather Summary for the Past Weeks

 TemperatureHumidityPressure
High28 °F (Feb 2, 7:30 AM)100% (Feb 1, 8:00 AM)29.89 "Hg (Feb 1, 8:00 AM)
Low-26 °F (Jan 26, 1:00 PM)58% (Feb 4, 6:30 PM)28.97 "Hg (Feb 2, 7:30 AM)
Average-1 °F84%29.59 "Hg
* Reported Jan 25 10:00 AM — Feb 9 10:00 AM, Anadyr, Weather by CustomWeather, © 2016

Note: Actual official high and low records may vary slightly from our data, if they occured in-between our weather recording intervals... More about our weather records

Advertising

Anadyr Weather History for the Previous 24 Hours

 ConditionsComfort  
Time TempWeatherWind HumidityBarometerVisibility
10:00 AM
Tue, Feb 9
-22 °FFog.10 mph91%29.89 "HgN/A
9:30 AM-20 °FFog.10 mph91%29.86 "HgN/A
9:00 AM-18 °FSunny.13 mph83%29.86 "Hg10 mi
8:30 AM-18 °FClear.13 mph83%29.86 "Hg10 mi
8:00 AM-17 °FClear.15 mph91%29.83 "Hg10 mi
7:30 AM-17 °FClear.13 mph91%29.83 "Hg10 mi
8:00 PM
Mon, Feb 8
-8 °FMostly cloudy.3 mph92%29.77 "HgN/A
7:00 PM-4 °FLight snow. Mostly cloudy.1 mph84%29.74 "HgN/A
6:00 PM-4 °FLight snow. Mostly cloudy.1 mph92%29.74 "HgN/A
5:30 PM-4 °FLight snow. Mostly cloudy.1 mph84%29.74 "HgN/A
5:00 PM-4 °FLight snow. Mostly cloudy.1 mph84%29.71 "HgN/A
4:30 PM-4 °FSnow. Ice fog.1 mph84%29.71 "Hg1 mi
4:00 PM-4 °FLight snow. Cloudy.No wind84%29.71 "Hg2 mi
3:30 PM-4 °FLight snow. Ice fog.1 mph92%29.74 "Hg2 mi
3:00 PM-4 °FSnow. Ice fog.No wind84%29.74 "Hg1 mi
2:30 PM-4 °FSnow. Ice fog.1 mph84%29.74 "Hg1 mi
2:00 PM-4 °FSnow. More clouds than sun.1 mph84%29.74 "Hg1 mi
1:00 PM-2 °FSnow. More clouds than sun.1 mph84%29.74 "Hg1 mi
12:30 PM-4 °FLight snow. Overcast.No wind84%29.74 "HgN/A
12:00 PM-6 °FLight snow. More clouds than sun.3 mph84%29.74 "HgN/A
11:30 AM-6 °FLight snow. More clouds than sun.3 mph92%29.74 "HgN/A
11:00 AM-4 °FLight snow. More clouds than sun.3 mph84%29.74 "HgN/A
Weather by CustomWeather, © 2016

See weather overviewHow to use our weather pages